| time (UTC) | temp C | wind direction | speed KPH | gust KPH | rain 1hr cm | rain 24hr cm | rain mn cm | humidity % | barometer mb |
| 20260906232003 | 25 | 264 | 9.7 | 19.3 | 0.00 | 0.00 | 0.00 | 29 | 1021.3 |
| 20260906231503 | 25 | 257 | 11.3 | 22.5 | 0.00 | 0.00 | 0.00 | 29 | 1021.4 |
| 20260906231003 | 25 | 239 | 11.3 | 22.5 | 0.00 | 0.00 | 0.00 | 28 | 1021.4 |
| 20260906230503 | 25 | 241 | 11.3 | 20.9 | 0.00 | 0.00 | 0.00 | 28 | 1021.5 |
| 20260906230003 | 25 | 241 | 12.9 | 19.3 | 0.00 | 0.00 | 0.00 | 28 | 1021.5 |
| 20260906225503 | 25 | 247 | 9.7 | 17.7 | 0.00 | 0.00 | 0.00 | 28 | 1021.5 |
| 20260906225003 | 25 | 267 | 8.0 | 16.1 | 0.00 | 0.00 | 0.00 | 29 | 1021.5 |
| 20260906224503 | 25 | 263 | 11.3 | 17.7 | 0.00 | 0.00 | 0.00 | 28 | 1021.6 |
| 20260906224003 | 25 | 243 | 14.5 | 20.9 | 0.00 | 0.00 | 0.00 | 28 | 1021.6 |
| 20260906223503 | 25 | 218 | 12.9 | 20.9 | 0.00 | 0.00 | 0.00 | 28 | 1021.6 |
| 20260906223003 | 25 | 208 | 12.9 | 30.6 | 0.00 | 0.00 | 0.00 | 28 | 1021.6 |
| 20260906222503 | 25 | 209 | 16.1 | 30.6 | 0.00 | 0.00 | 0.00 | 28 | 1021.7 |
| 20260906222218 | 25 | 210 | 16.1 | 30.6 | 0.00 | 0.00 | 0.00 | 28 | 1021.7 |
| 20260906221503 | 25 | 219 | 9.7 | 25.7 | 0.00 | 0.00 | 0.00 | 28 | 1021.7 |
| 20260906221003 | 25 | 213 | 11.3 | 25.7 | 0.00 | 0.00 | 0.00 | 28 | 1021.7 |
| 20260906220503 | 25 | 227 | 14.5 | 29.0 | 0.00 | 0.00 | 0.00 | 28 | 1021.8 |
| 20260906220003 | 25 | 230 | 17.7 | 29.0 | 0.00 | 0.00 | 0.00 | 28 | 1021.9 |
| 20260906215503 | 25 | 230 | 16.1 | 27.4 | 0.00 | 0.00 | 0.00 | 28 | 1021.9 |
| 20260906215003 | 25 | 241 | 12.9 | 22.5 | 0.00 | 0.00 | 0.00 | 28 | 1021.9 |
| 20260906214503 | 25 | 223 | 11.3 | 22.5 | 0.00 | 0.00 | 0.00 | 28 | 1022.0 |
| 20260906214003 | 25 | 214 | 11.3 | 20.9 | 0.00 | 0.00 | 0.00 | 28 | 1022.0 |
| 20260906213503 | 25 | 219 | 16.1 | 27.4 | 0.00 | 0.00 | 0.00 | 28 | 1022.2 |
| 20260906213003 | 25 | 206 | 17.7 | 27.4 | 0.00 | 0.00 | 0.00 | 27 | 1022.1 |
| 20260906212503 | 25 | 206 | 11.3 | 25.7 | 0.00 | 0.00 | 0.00 | 27 | 1022.2 |
| 20260906212003 | 25 | 230 | 9.7 | 22.5 | 0.00 | 0.00 | 0.00 | 27 | 1022.2 |
| 20260906211503 | 26 | 236 | 6.4 | 19.3 | 0.00 | 0.00 | 0.00 | 27 | 1022.2 |
| 20260906211003 | 26 | 225 | 4.8 | 29.0 | 0.00 | 0.00 | 0.00 | 27 | 1022.2 |
| 20260906210503 | 25 | 235 | 11.3 | 29.0 | 0.00 | 0.00 | 0.00 | 27 | 1022.2 |
| 20260906210004 | 26 | 257 | 14.5 | 27.4 | 0.00 | 0.00 | 0.00 | 27 | 1022.3 |
| 20260906205503 | 25 | 275 | 14.5 | 27.4 | 0.00 | 0.00 | 0.00 | 27 | 1022.3 |
| 20260906205003 | 25 | 278 | 9.7 | 27.4 | 0.00 | 0.00 | 0.00 | 27 | 1022.4 |
| 20260906204503 | 25 | 270 | 9.7 | 20.9 | 0.00 | 0.00 | 0.00 | 27 | 1022.4 |
| 20260906204003 | 25 | 273 | 14.5 | 29.0 | 0.00 | 0.00 | 0.00 | 27 | 1022.4 |
| 20260906203503 | 25 | 266 | 17.7 | 29.0 | 0.00 | 0.00 | 0.00 | 27 | 1022.5 |
| 20260906203003 | 25 | 268 | 12.9 | 29.0 | 0.00 | 0.00 | 0.00 | 27 | 1022.4 |
| 20260906202503 | 25 | 253 | 11.3 | 22.5 | 0.00 | 0.00 | 0.00 | 27 | 1022.5 |
| 20260906202003 | 25 | 228 | 12.9 | 22.5 | 0.00 | 0.00 | 0.00 | 27 | 1022.6 |
| 20260906201503 | 25 | 250 | 12.9 | 22.5 | 0.00 | 0.00 | 0.00 | 27 | 1022.6 |
| 20260906201003 | 25 | 253 | 14.5 | 33.8 | 0.00 | 0.00 | 0.00 | 27 | 1022.6 |
| 20260906200718 | 25 | 255 | 17.7 | 33.8 | 0.00 | 0.00 | 0.00 | 27 | 1022.8 |
| 20260906200003 | 25 | 238 | 17.7 | 45.1 | 0.00 | 0.00 | 0.00 | 26 | 1022.6 |
| 20260906195503 | 25 | 199 | 14.5 | 29.0 | 0.00 | 0.00 | 0.00 | 26 | 1022.8 |
| 20260906195003 | 26 | 236 | 14.5 | 33.8 | 0.00 | 0.00 | 0.00 | 25 | 1022.8 |
| 20260906194503 | 25 | 266 | 12.9 | 33.8 | 0.00 | 0.00 | 0.00 | 27 | 1022.7 |
| 20260906194003 | 25 | 241 | 16.1 | 30.6 | 0.00 | 0.00 | 0.00 | 26 | 1022.8 |
| 20260906193503 | 25 | 239 | 17.7 | 35.4 | 0.00 | 0.00 | 0.00 | 26 | 1022.9 |
| 20260906193003 | 25 | 238 | 12.9 | 35.4 | 0.00 | 0.00 | 0.00 | 26 | 1022.9 |
| 20260906192503 | 25 | 158 | 9.7 | 33.8 | 0.00 | 0.00 | 0.00 | 26 | 1022.8 |
| 20260906192003 | 25 | 215 | 16.1 | 30.6 | 0.00 | 0.00 | 0.00 | 25 | 1023.1 |
| 20260906191503 | 25 | 220 | 16.1 | 30.6 | 0.00 | 0.00 | 0.00 | 25 | 1023.1 |
| 20260906191216 | 25 | 215 | 12.9 | 30.6 | 0.00 | 0.00 | 0.00 | 25 | 1023.1 |
| 20260906190503 | 25 | 211 | 14.5 | 24.1 | 0.00 | 0.00 | 0.00 | 25 | 1023.3 |
| 20260906190003 | 25 | 214 | 14.5 | 24.1 | 0.00 | 0.00 | 0.00 | 26 | 1023.3 |
| 20260906185718 | 25 | 210 | 12.9 | 24.1 | 0.00 | 0.00 | 0.00 | 26 | 1023.3 |
| 20260906185003 | 24 | 209 | 11.3 | 17.7 | 0.00 | 0.00 | 0.00 | 27 | 1023.4 |
| 20260906184503 | 24 | 221 | 9.7 | 19.3 | 0.00 | 0.00 | 0.00 | 27 | 1023.4 |
| 20260906184003 | 24 | 231 | 8.0 | 19.3 | 0.00 | 0.00 | 0.00 | 26 | 1023.5 |
| 20260906183503 | 24 | 224 | 9.7 | 22.5 | 0.00 | 0.00 | 0.00 | 27 | 1023.5 |
| 20260906183003 | 24 | 228 | 14.5 | 27.4 | 0.00 | 0.00 | 0.00 | 27 | 1023.6 |
| 20260906182503 | 24 | 240 | 14.5 | 27.4 | 0.00 | 0.00 | 0.00 | 27 | 1023.7 |
| 20260906182004 | 25 | 236 | 11.3 | 24.1 | 0.00 | 0.00 | 0.00 | 27 | 1023.7 |
| 20260906181503 | 24 | 231 | 8.0 | 17.7 | 0.00 | 0.00 | 0.00 | 28 | 1023.8 |
| 20260906181216 | 24 | 233 | 6.4 | 12.9 | 0.00 | 0.00 | 0.00 | 28 | 1023.8 |
| 20260906180503 | 24 | 218 | 8.0 | 24.1 | 0.00 | 0.00 | 0.00 | 27 | 1023.8 |
| 20260906180003 | 24 | 215 | 8.0 | 24.1 | 0.00 | 0.00 | 0.00 | 28 | 1024.0 |
| 20260906175717 | 24 | 209 | 8.0 | 24.1 | 0.00 | 0.00 | 0.00 | 29 | 1024.0 |
| 20260906175003 | 23 | 219 | 11.3 | 29.0 | 0.00 | 0.00 | 0.00 | 29 | 1024.2 |
| 20260906174503 | 24 | 217 | 11.3 | 19.3 | 0.00 | 0.00 | 0.00 | 28 | 1024.2 |
| 20260906174218 | 24 | 224 | 14.5 | 30.6 | 0.00 | 0.00 | 0.00 | 27 | 1024.3 |
| 20260906173717 | 24 | 226 | 11.3 | 30.6 | 0.00 | 0.00 | 0.00 | 27 | 1024.4 |
| 20260906173003 | 23 | 264 | 9.7 | 24.1 | 0.00 | 0.00 | 0.00 | 27 | 1024.4 |
| 20260906172503 | 23 | 228 | 9.7 | 19.3 | 0.00 | 0.00 | 0.00 | 27 | 1024.4 |
| 20260906172003 | 23 | 231 | 9.7 | 20.9 | 0.00 | 0.00 | 0.00 | 27 | 1024.4 |
| 20260906171503 | 23 | 243 | 12.9 | 20.9 | 0.00 | 0.00 | 0.00 | 27 | 1024.5 |
| 20260906171003 | 23 | 235 | 9.7 | 20.9 | 0.00 | 0.00 | 0.00 | 26 | 1024.6 |
| 20260906170503 | 23 | 248 | 8.0 | 17.7 | 0.00 | 0.00 | 0.00 | 26 | 1024.5 |
| 20260906170003 | 23 | 260 | 8.0 | 17.7 | 0.00 | 0.00 | 0.00 | 27 | 1024.6 |
| 20260906165503 | 23 | 247 | 8.0 | 19.3 | 0.00 | 0.00 | 0.00 | 26 | 1024.7 |
| 20260906165003 | 23 | 214 | 9.7 | 24.1 | 0.00 | 0.00 | 0.00 | 26 | 1024.7 |
| 20260906164719 | 23 | 198 | 8.0 | 24.1 | 0.00 | 0.00 | 0.00 | 26 | 1024.7 |
| 20260906164003 | 23 | 244 | 11.3 | 25.7 | 0.00 | 0.00 | 0.00 | 26 | 1024.7 |
| 20260906163503 | 23 | 243 | 9.7 | 25.7 | 0.00 | 0.00 | 0.00 | 25 | 1024.7 |
| 20260906163003 | 23 | 229 | 9.7 | 17.7 | 0.00 | 0.00 | 0.00 | 26 | 1024.6 |
| 20260906162503 | 22 | 223 | 9.7 | 17.7 | 0.00 | 0.00 | 0.00 | 25 | 1024.6 |
| 20260906162003 | 23 | 211 | 4.8 | 17.7 | 0.00 | 0.00 | 0.00 | 25 | 1024.6 |
| 20260906161503 | 22 | 246 | 6.4 | 16.1 | 0.00 | 0.00 | 0.00 | 25 | 1024.7 |
| 20260906161003 | 22 | 253 | 11.3 | 16.1 | 0.00 | 0.00 | 0.00 | 25 | 1024.7 |
| 20260906160503 | 22 | 249 | 9.7 | 16.1 | 0.00 | 0.00 | 0.00 | 25 | 1024.6 |
| 20260906160217 | 22 | 243 | 8.0 | 16.1 | 0.00 | 0.00 | 0.00 | 25 | 1024.6 |
| 20260906155503 | 22 | 213 | 1.6 | 8.0 | 0.00 | 0.00 | 0.00 | 25 | 1024.6 |
| 20260906155003 | 22 | 220 | 3.2 | 8.0 | 0.00 | 0.00 | 0.00 | 26 | 1024.6 |
| 20260906154503 | 22 | 213 | 3.2 | 8.0 | 0.00 | 0.00 | 0.00 | 25 | 1024.6 |
| 20260906154003 | 22 | 121 | 1.6 | 9.7 | 0.00 | 0.00 | 0.00 | 26 | 1024.6 |
| 20260906153503 | 21 | 84 | 3.2 | 9.7 | 0.00 | 0.00 | 0.00 | 28 | 1024.7 |
| 20260906153003 | 21 | 64 | 4.8 | 8.0 | 0.00 | 0.00 | 0.00 | 29 | 1024.7 |
| 20260906152503 | 20 | 54 | 6.4 | 12.9 | 0.00 | 0.00 | 0.00 | 31 | 1024.8 |
| 20260906152003 | 20 | 53 | 8.0 | 14.5 | 0.00 | 0.00 | 0.00 | 32 | 1024.8 |
| 20260906151504 | 19 | 53 | 8.0 | 14.5 | 0.00 | 0.00 | 0.00 | 33 | 1024.7 |
| 20260906151219 | 18 | 54 | 8.0 | 16.1 | 0.00 | 0.00 | 0.00 | 33 | 1024.8 |
| 20260906150503 | 18 | 52 | 11.3 | 19.3 | 0.00 | 0.00 | 0.00 | 33 | 1024.8 |
| 20260906150003 | 18 | 55 | 14.5 | 20.9 | 0.00 | 0.00 | 0.00 | 34 | 1024.8 |
| 20260906145503 | 18 | 56 | 16.1 | 20.9 | 0.00 | 0.00 | 0.00 | 34 | 1024.7 |
| 20260906145003 | 18 | 55 | 14.5 | 22.5 | 0.00 | 0.00 | 0.00 | 34 | 1024.7 |
| 20260906144503 | 17 | 59 | 16.1 | 22.5 | 0.00 | 0.00 | 0.00 | 36 | 1024.6 |
| 20260906144003 | 17 | 58 | 16.1 | 20.9 | 0.00 | 0.00 | 0.00 | 38 | 1024.6 |
| 20260906143718 | 17 | 56 | 16.1 | 20.9 | 0.00 | 0.00 | 0.00 | 37 | 1024.6 |
| 20260906143003 | 17 | 54 | 12.9 | 19.3 | 0.00 | 0.00 | 0.00 | 38 | 1024.7 |
| 20260906142503 | 16 | 54 | 12.9 | 20.9 | 0.00 | 0.00 | 0.00 | 38 | 1024.7 |
| 20260906142003 | 16 | 55 | 14.5 | 20.9 | 0.00 | 0.00 | 0.00 | 38 | 1024.7 |
| 20260906141503 | 16 | 56 | 16.1 | 20.9 | 0.00 | 0.00 | 0.00 | 38 | 1024.6 |
| 20260906141003 | 16 | 53 | 12.9 | 20.9 | 0.00 | 0.00 | 0.00 | 38 | 1024.7 |
| 20260906140503 | 16 | 48 | 11.3 | 20.9 | 0.00 | 0.00 | 0.00 | 39 | 1024.7 |
| 20260906140003 | 16 | 45 | 9.7 | 20.9 | 0.00 | 0.00 | 0.00 | 39 | 1024.6 |
| 20260906135718 | 15 | 43 | 8.0 | 16.1 | 0.00 | 0.00 | 0.00 | 40 | 1024.6 |
| 20260906135003 | 15 | 40 | 8.0 | 16.1 | 0.00 | 0.00 | 0.00 | 42 | 1024.6 |
| 20260906134503 | 14 | 40 | 8.0 | 17.7 | 0.00 | 0.00 | 0.00 | 43 | 1024.6 |
| 20260906134003 | 14 | 39 | 8.0 | 17.7 | 0.00 | 0.00 | 0.00 | 44 | 1024.5 |
| 20260906133503 | 13 | 38 | 8.0 | 14.5 | 0.00 | 0.00 | 0.00 | 45 | 1024.6 |
| 20260906133003 | 13 | 34 | 9.7 | 14.5 | 0.00 | 0.00 | 0.00 | 46 | 1024.5 |
| 20260906132504 | 12 | 35 | 9.7 | 14.5 | 0.00 | 0.00 | 0.00 | 48 | 1024.4 |
| 20260906132003 | 12 | 39 | 9.7 | 14.5 | 0.00 | 0.00 | 0.00 | 49 | 1024.2 |
| 20260906131503 | 12 | 41 | 9.7 | 12.9 | 0.00 | 0.00 | 0.00 | 50 | 1024.2 |
| 20260906131003 | 11 | 42 | 9.7 | 14.5 | 0.00 | 0.00 | 0.00 | 51 | 1024.1 |
| 20260906130717 | 11 | 42 | 9.7 | 14.5 | 0.00 | 0.00 | 0.00 | 51 | 1024.1 |
| 20260906130003 | 10 | 41 | 9.7 | 14.5 | 0.00 | 0.00 | 0.00 | 53 | 1023.9 |
| 20260906125717 | 10 | 40 | 11.3 | 14.5 | 0.00 | 0.00 | 0.00 | 53 | 1023.9 |
| 20260906125003 | 11 | 40 | 9.7 | 14.5 | 0.00 | 0.00 | 0.00 | 52 | 1023.9 |
| 20260906124503 | 11 | 42 | 9.7 | 14.5 | 0.00 | 0.00 | 0.00 | 52 | 1023.9 |
| 20260906124003 | 11 | 41 | 9.7 | 14.5 | 0.00 | 0.00 | 0.00 | 51 | 1023.9 |
| 20260906123503 | 11 | 37 | 9.7 | 14.5 | 0.00 | 0.00 | 0.00 | 50 | 1023.8 |
| 20260906123003 | 11 | 35 | 9.7 | 14.5 | 0.00 | 0.00 | 0.00 | 50 | 1023.7 |
| 20260906122503 | 11 | 37 | 9.7 | 14.5 | 0.00 | 0.00 | 0.00 | 51 | 1023.7 |
| 20260906122003 | 11 | 42 | 9.7 | 14.5 | 0.00 | 0.00 | 0.00 | 50 | 1023.7 |
| 20260906121717 | 11 | 44 | 9.7 | 14.5 | 0.00 | 0.00 | 0.00 | 50 | 1023.8 |
| 20260906121003 | 11 | 42 | 8.0 | 14.5 | 0.00 | 0.00 | 0.00 | 51 | 1023.7 |
| 20260906120717 | 11 | 40 | 8.0 | 14.5 | 0.00 | 0.00 | 0.00 | 51 | 1023.8 |
| 20260906120003 | 11 | 39 | 9.7 | 16.1 | 0.00 | 0.00 | 0.00 | 50 | 1023.8 |
| 20260906115717 | 11 | 40 | 8.0 | 16.1 | 0.00 | 0.00 | 0.00 | 51 | 1023.7 |
| 20260906115003 | 11 | 39 | 8.0 | 14.5 | 0.00 | 0.00 | 0.00 | 51 | 1023.7 |
| 20260906114503 | 11 | 41 | 9.7 | 14.5 | 0.00 | 0.00 | 0.00 | 51 | 1023.8 |
| 20260906114003 | 11 | 42 | 9.7 | 14.5 | 0.00 | 0.00 | 0.00 | 51 | 1023.8 |
| 20260906113717 | 11 | 43 | 9.7 | 14.5 | 0.00 | 0.00 | 0.00 | 51 | 1023.8 |
| 20260906113003 | 11 | 39 | 9.7 | 14.5 | 0.00 | 0.00 | 0.00 | 52 | 1023.9 |
| 20260906112503 | 11 | 34 | 9.7 | 14.5 | 0.00 | 0.00 | 0.00 | 52 | 1023.8 |
| 20260906112003 | 11 | 34 | 9.7 | 14.5 | 0.00 | 0.00 | 0.00 | 52 | 1023.7 |
| 20260906111503 | 11 | 37 | 9.7 | 14.5 | 0.00 | 0.00 | 0.00 | 53 | 1023.6 |
| 20260906111003 | 11 | 41 | 9.7 | 14.5 | 0.00 | 0.00 | 0.00 | 54 | 1023.6 |
| 20260906110503 | 11 | 39 | 9.7 | 14.5 | 0.00 | 0.00 | 0.00 | 53 | 1023.5 |
| 20260906110003 | 11 | 38 | 9.7 | 14.5 | 0.00 | 0.00 | 0.00 | 52 | 1023.5 |
| 20260906105503 | 11 | 38 | 9.7 | 14.5 | 0.00 | 0.00 | 0.00 | 52 | 1023.5 |
| 20260906105003 | 11 | 35 | 9.7 | 14.5 | 0.00 | 0.00 | 0.00 | 52 | 1023.6 |
| 20260906104503 | 11 | 35 | 9.7 | 14.5 | 0.00 | 0.00 | 0.00 | 52 | 1023.5 |
| 20260906104217 | 11 | 36 | 9.7 | 14.5 | 0.00 | 0.00 | 0.00 | 52 | 1023.5 |
| 20260906103503 | 11 | 40 | 9.7 | 12.9 | 0.00 | 0.00 | 0.00 | 52 | 1023.5 |
| 20260906103004 | 11 | 38 | 9.7 | 14.5 | 0.00 | 0.00 | 0.00 | 52 | 1023.5 |
| 20260906102503 | 11 | 38 | 9.7 | 14.5 | 0.00 | 0.00 | 0.00 | 51 | 1023.4 |
| 20260906102003 | 11 | 38 | 9.7 | 14.5 | 0.00 | 0.00 | 0.00 | 51 | 1023.4 |
| 20260906101503 | 11 | 40 | 9.7 | 14.5 | 0.00 | 0.00 | 0.00 | 51 | 1023.4 |
| 20260906101004 | 11 | 39 | 9.7 | 16.1 | 0.00 | 0.00 | 0.00 | 51 | 1023.3 |
| 20260906100503 | 11 | 37 | 11.3 | 16.1 | 0.00 | 0.00 | 0.00 | 52 | 1023.3 |
| 20260906100003 | 11 | 37 | 9.7 | 16.1 | 0.00 | 0.00 | 0.00 | 52 | 1023.3 |
| 20260906095503 | 11 | 38 | 9.7 | 12.9 | 0.00 | 0.00 | 0.00 | 52 | 1023.4 |
| 20260906095217 | 11 | 37 | 8.0 | 14.5 | 0.00 | 0.00 | 0.00 | 51 | 1023.4 |
| 20260906094503 | 12 | 36 | 9.7 | 17.7 | 0.00 | 0.00 | 0.00 | 51 | 1023.3 |
| 20260906094003 | 11 | 34 | 9.7 | 17.7 | 0.00 | 0.00 | 0.00 | 51 | 1023.3 |
| 20260906093503 | 11 | 30 | 11.3 | 17.7 | 0.00 | 0.00 | 0.00 | 51 | 1023.4 |
| 20260906093003 | 11 | 33 | 11.3 | 17.7 | 0.00 | 0.00 | 0.00 | 52 | 1023.3 |
| 20260906092503 | 11 | 38 | 9.7 | 14.5 | 0.00 | 0.00 | 0.00 | 52 | 1023.3 |
| 20260906092003 | 11 | 41 | 9.7 | 14.5 | 0.00 | 0.00 | 0.00 | 51 | 1023.4 |
| 20260906091503 | 11 | 38 | 9.7 | 12.9 | 0.00 | 0.00 | 0.00 | 51 | 1023.5 |
| 20260906091003 | 11 | 35 | 9.7 | 12.9 | 0.00 | 0.00 | 0.00 | 51 | 1023.4 |
| 20260906090718 | 11 | 37 | 9.7 | 12.9 | 0.00 | 0.00 | 0.00 | 50 | 1023.3 |
| 20260906090217 | 12 | 40 | 9.7 | 14.5 | 0.00 | 0.00 | 0.00 | 50 | 1023.3 |
| 20260906085503 | 12 | 42 | 9.7 | 16.1 | 0.00 | 0.00 | 0.00 | 48 | 1023.3 |
| 20260906085003 | 12 | 40 | 11.3 | 16.1 | 0.00 | 0.00 | 0.00 | 47 | 1023.4 |
| 20260906084503 | 12 | 36 | 11.3 | 16.1 | 0.00 | 0.00 | 0.00 | 47 | 1023.4 |
| 20260906084003 | 12 | 33 | 11.3 | 14.5 | 0.00 | 0.00 | 0.00 | 48 | 1023.6 |
| 20260906083503 | 12 | 35 | 11.3 | 14.5 | 0.00 | 0.00 | 0.00 | 49 | 1023.6 |
| 20260906083003 | 11 | 37 | 9.7 | 14.5 | 0.00 | 0.00 | 0.00 | 49 | 1023.7 |
| 20260906082503 | 11 | 37 | 9.7 | 14.5 | 0.00 | 0.00 | 0.00 | 48 | 1023.6 |
| 20260906082003 | 11 | 35 | 9.7 | 14.5 | 0.00 | 0.00 | 0.00 | 46 | 1023.6 |
| 20260906081503 | 12 | 33 | 9.7 | 14.5 | 0.00 | 0.00 | 0.00 | 46 | 1023.6 |
| 20260906081003 | 12 | 32 | 11.3 | 14.5 | 0.00 | 0.00 | 0.00 | 46 | 1023.7 |
| 20260906080718 | 12 | 32 | 11.3 | 14.5 | 0.00 | 0.00 | 0.00 | 46 | 1023.7 |
| 20260906080003 | 11 | 37 | 9.7 | 14.5 | 0.00 | 0.00 | 0.00 | 48 | 1023.7 |
| 20260906075503 | 11 | 36 | 9.7 | 14.5 | 0.00 | 0.00 | 0.00 | 49 | 1023.7 |
| 20260906075216 | 11 | 34 | 9.7 | 14.5 | 0.00 | 0.00 | 0.00 | 49 | 1023.7 |
| 20260906074503 | 10 | 36 | 9.7 | 14.5 | 0.00 | 0.00 | 0.00 | 51 | 1023.8 |
| 20260906074003 | 11 | 32 | 8.0 | 14.5 | 0.00 | 0.00 | 0.00 | 49 | 1023.8 |
| 20260906073503 | 11 | 28 | 8.0 | 12.9 | 0.00 | 0.00 | 0.00 | 48 | 1023.7 |
| 20260906073003 | 11 | 31 | 8.0 | 12.9 | 0.00 | 0.00 | 0.00 | 48 | 1023.7 |
| 20260906072503 | 11 | 33 | 6.4 | 9.7 | 0.00 | 0.00 | 0.00 | 48 | 1023.9 |
| 20260906072003 | 11 | 32 | 8.0 | 9.7 | 0.00 | 0.00 | 0.00 | 48 | 1023.9 |
| 20260906071503 | 11 | 32 | 8.0 | 9.7 | 0.00 | 0.00 | 0.00 | 48 | 1023.8 |
| 20260906071218 | 11 | 33 | 8.0 | 9.7 | 0.00 | 0.00 | 0.00 | 48 | 1023.9 |
| 20260906070503 | 12 | 35 | 8.0 | 9.7 | 0.00 | 0.00 | 0.00 | 48 | 1023.8 |
| 20260906070003 | 12 | 35 | 8.0 | 12.9 | 0.00 | 0.00 | 0.00 | 48 | 1023.8 |
| 20260906065717 | 12 | 34 | 8.0 | 12.9 | 0.00 | 0.00 | 0.00 | 48 | 1023.8 |
| 20260906065003 | 13 | 34 | 8.0 | 14.5 | 0.00 | 0.00 | 0.00 | 47 | 1023.7 |
| 20260906064503 | 12 | 33 | 9.7 | 14.5 | 0.00 | 0.00 | 0.00 | 47 | 1023.8 |
| 20260906064218 | 12 | 36 | 8.0 | 12.9 | 0.00 | 0.00 | 0.00 | 47 | 1023.8 |
| 20260906063503 | 12 | 37 | 8.0 | 12.9 | 0.00 | 0.00 | 0.00 | 48 | 1023.8 |
| 20260906063003 | 11 | 38 | 8.0 | 9.7 | 0.00 | 0.00 | 0.00 | 50 | 1023.8 |
| 20260906062503 | 11 | 36 | 8.0 | 9.7 | 0.00 | 0.00 | 0.00 | 49 | 1023.7 |
| 20260906062003 | 12 | 27 | 6.4 | 9.7 | 0.00 | 0.00 | 0.00 | 46 | 1023.8 |
| 20260906061503 | 13 | 12 | 4.8 | 8.0 | 0.00 | 0.00 | 0.00 | 43 | 1023.7 |
| 20260906061003 | 15 | 360 | 4.8 | 8.0 | 0.00 | 0.00 | 0.00 | 41 | 1023.7 |
| 20260906060503 | 15 | 360 | 8.0 | 12.9 | 0.00 | 0.00 | 0.00 | 40 | 1023.7 |
| 20260906060003 | 16 | 360 | 9.7 | 12.9 | 0.00 | 0.00 | 0.00 | 39 | 1023.7 |
| 20260906055503 | 16 | 360 | 9.7 | 14.5 | 0.00 | 0.00 | 0.00 | 39 | 1023.7 |
| 20260906055003 | 16 | 358 | 9.7 | 14.5 | 0.00 | 0.00 | 0.00 | 39 | 1023.7 |
| 20260906054503 | 16 | 354 | 8.0 | 12.9 | 0.00 | 0.00 | 0.00 | 39 | 1023.8 |
| 20260906054217 | 16 | 355 | 8.0 | 12.9 | 0.00 | 0.00 | 0.00 | 39 | 1023.8 |
| 20260906053503 | 16 | 355 | 11.3 | 14.5 | 0.00 | 0.00 | 0.00 | 39 | 1023.8 |
| 20260906053003 | 16 | 356 | 11.3 | 14.5 | 0.00 | 0.00 | 0.00 | 39 | 1023.8 |
| 20260906052503 | 16 | 356 | 11.3 | 14.5 | 0.00 | 0.00 | 0.00 | 39 | 1023.8 |
| 20260906052003 | 16 | 353 | 11.3 | 14.5 | 0.00 | 0.00 | 0.00 | 39 | 1023.8 |
| 20260906051503 | 16 | 353 | 11.3 | 14.5 | 0.00 | 0.00 | 0.00 | 39 | 1023.9 |
| 20260906051003 | 16 | 356 | 9.7 | 14.5 | 0.00 | 0.00 | 0.00 | 39 | 1023.8 |
| 20260906050503 | 16 | 356 | 9.7 | 14.5 | 0.00 | 0.00 | 0.00 | 39 | 1023.8 |
| 20260906050217 | 16 | 355 | 9.7 | 16.1 | 0.00 | 0.00 | 0.00 | 38 | 1023.8 |
| 20260906045503 | 17 | 351 | 12.9 | 17.7 | 0.00 | 0.00 | 0.00 | 37 | 1023.8 |
| 20260906045003 | 16 | 349 | 11.3 | 14.5 | 0.00 | 0.00 | 0.00 | 37 | 1023.7 |
| 20260906044503 | 16 | 346 | 9.7 | 12.9 | 0.00 | 0.00 | 0.00 | 38 | 1023.8 |
| 20260906044217 | 16 | 343 | 8.0 | 12.9 | 0.00 | 0.00 | 0.00 | 38 | 1023.8 |
| 20260906043503 | 16 | 335 | 4.8 | 8.0 | 0.00 | 0.00 | 0.00 | 37 | 1023.9 |
| 20260906043217 | 17 | 333 | 3.2 | 4.8 | 0.00 | 0.00 | 0.00 | 37 | 1023.9 |
| 20260906042503 | 17 | 333 | 4.8 | 6.4 | 0.00 | 0.00 | 0.00 | 37 | 1023.8 |
| 20260906042003 | 17 | 333 | 4.8 | 6.4 | 0.00 | 0.00 | 0.00 | 37 | 1023.9 |
| 20260906041503 | 17 | 333 | 4.8 | 6.4 | 0.00 | 0.00 | 0.00 | 37 | 1023.8 |
| 20260906041217 | 17 | 336 | 6.4 | 9.7 | 0.00 | 0.00 | 0.00 | 37 | 1023.8 |
| 20260906040503 | 17 | 341 | 6.4 | 9.7 | 0.00 | 0.00 | 0.00 | 37 | 1023.8 |
| 20260906040003 | 17 | 340 | 6.4 | 9.7 | 0.00 | 0.00 | 0.00 | 36 | 1023.7 |
| 20260906035503 | 17 | 338 | 6.4 | 9.7 | 0.00 | 0.00 | 0.00 | 36 | 1023.7 |
| 20260906035003 | 17 | 337 | 6.4 | 12.9 | 0.00 | 0.00 | 0.00 | 36 | 1023.7 |
| 20260906034503 | 17 | 334 | 6.4 | 12.9 | 0.00 | 0.00 | 0.00 | 35 | 1023.7 |
| 20260906034003 | 17 | 327 | 6.4 | 8.0 | 0.00 | 0.00 | 0.00 | 35 | 1023.7 |
| 20260906033503 | 17 | 324 | 6.4 | 8.0 | 0.00 | 0.00 | 0.00 | 35 | 1023.6 |
| 20260906033003 | 17 | 321 | 6.4 | 8.0 | 0.00 | 0.00 | 0.00 | 36 | 1023.6 |
| 20260906032503 | 17 | 310 | 4.8 | 8.0 | 0.00 | 0.00 | 0.00 | 36 | 1023.7 |
| 20260906032003 | 17 | 303 | 4.8 | 6.4 | 0.00 | 0.00 | 0.00 | 36 | 1023.6 |
| 20260906031503 | 18 | 304 | 4.8 | 8.0 | 0.00 | 0.00 | 0.00 | 36 | 1023.6 |
| 20260906031003 | 18 | 307 | 6.4 | 8.0 | 0.00 | 0.00 | 0.00 | 36 | 1023.5 |
| 20260906030503 | 18 | 311 | 6.4 | 9.7 | 0.00 | 0.00 | 0.00 | 35 | 1023.3 |
| 20260906030217 | 18 | 316 | 6.4 | 9.7 | 0.00 | 0.00 | 0.00 | 36 | 1023.3 |
| 20260906025717 | 18 | 322 | 6.4 | 9.7 | 0.00 | 0.00 | 0.00 | 36 | 1023.2 |
| 20260906025004 | 18 | 318 | 4.8 | 8.0 | 0.00 | 0.00 | 0.00 | 36 | 1023.1 |
| 20260906024503 | 18 | 310 | 4.8 | 6.4 | 0.00 | 0.00 | 0.00 | 36 | 1023.1 |
| 20260906024003 | 18 | 299 | 4.8 | 6.4 | 0.00 | 0.00 | 0.00 | 36 | 1023.1 |
| 20260906023503 | 18 | 292 | 6.4 | 11.3 | 0.00 | 0.00 | 0.00 | 36 | 1023.1 |
| 20260906023219 | 19 | 290 | 8.0 | 11.3 | 0.00 | 0.00 | 0.00 | 35 | 1023.0 |
| 20260906022503 | 19 | 284 | 8.0 | 11.3 | 0.00 | 0.00 | 0.00 | 35 | 1022.8 |
| 20260906022216 | 20 | 280 | 8.0 | 11.3 | 0.00 | 0.00 | 0.00 | 34 | 1022.9 |
| 20260906021717 | 20 | 269 | 8.0 | 11.3 | 0.00 | 0.00 | 0.00 | 34 | 1022.8 |
| 20260906021003 | 20 | 265 | 9.7 | 16.1 | 0.00 | 0.00 | 0.00 | 33 | 1022.7 |
| 20260906020503 | 20 | 266 | 11.3 | 17.7 | 0.00 | 0.00 | 0.00 | 32 | 1022.6 |
| 20260906020003 | 21 | 266 | 12.9 | 17.7 | 0.00 | 0.00 | 0.00 | 32 | 1022.6 |
| 20260906015503 | 21 | 269 | 11.3 | 17.7 | 0.00 | 0.00 | 0.00 | 31 | 1022.6 |
| 20260906015004 | 21 | 268 | 11.3 | 16.1 | 0.00 | 0.00 | 0.00 | 30 | 1022.5 |
| 20260906014503 | 21 | 262 | 12.9 | 19.3 | 0.00 | 0.00 | 0.00 | 30 | 1022.5 |
| 20260906014003 | 22 | 260 | 16.1 | 22.5 | 0.00 | 0.00 | 0.00 | 29 | 1022.5 |
| 20260906013503 | 22 | 257 | 16.1 | 22.5 | 0.00 | 0.00 | 0.00 | 29 | 1022.5 |
| 20260906013003 | 22 | 251 | 14.5 | 22.5 | 0.00 | 0.00 | 0.00 | 29 | 1022.5 |
| 20260906012503 | 22 | 253 | 16.1 | 22.5 | 0.00 | 0.00 | 0.00 | 28 | 1022.5 |
| 20260906012003 | 23 | 256 | 16.1 | 22.5 | 0.00 | 0.00 | 0.00 | 27 | 1022.5 |
| 20260906011717 | 23 | 257 | 16.1 | 22.5 | 0.00 | 0.00 | 0.00 | 27 | 1022.5 |
| 20260906011003 | 23 | 247 | 16.1 | 22.5 | 0.00 | 0.00 | 0.00 | 26 | 1022.5 |
| 20260906010503 | 23 | 242 | 16.1 | 22.5 | 0.00 | 0.00 | 0.00 | 26 | 1022.5 |
| 20260906010003 | 23 | 242 | 17.7 | 25.7 | 0.00 | 0.00 | 0.00 | 26 | 1022.4 |
| 20260906005503 | 23 | 239 | 17.7 | 29.0 | 0.00 | 0.00 | 0.00 | 26 | 1022.5 |
| 20260906005003 | 23 | 240 | 17.7 | 29.0 | 0.00 | 0.00 | 0.00 | 26 | 1022.5 |
| 20260906004503 | 24 | 244 | 17.7 | 24.1 | 0.00 | 0.00 | 0.00 | 26 | 1022.6 |
| 20260906004003 | 24 | 251 | 16.1 | 22.5 | 0.00 | 0.00 | 0.00 | 26 | 1022.5 |
| 20260906003503 | 24 | 251 | 16.1 | 22.5 | 0.00 | 0.00 | 0.00 | 26 | 1022.5 |
| 20260906003003 | 23 | 241 | 16.1 | 24.1 | 0.00 | 0.00 | 0.00 | 26 | 1022.5 |
| 20260906002503 | 23 | 242 | 17.7 | 24.1 | 0.00 | 0.00 | 0.00 | 25 | 1022.4 |
| 20260906002003 | 23 | 244 | 16.1 | 22.5 | 0.00 | 0.00 | 0.00 | 25 | 1022.5 |
| 20260906001503 | 23 | 242 | 14.5 | 24.1 | 0.00 | 0.00 | 0.00 | 25 | 1022.5 |
| 20260906001003 | 24 | 239 | 14.5 | 24.1 | 0.00 | 0.00 | 0.00 | 25 | 1022.5 |
| 20260906000503 | 24 | 244 | 14.5 | 25.7 | 0.00 | 0.00 | 0.00 | 24 | 1022.5 |
| 20260906000003 | 24 | 254 | 19.3 | 30.6 | 0.00 | 0.00 | 0.00 | 24 | 1022.5 |
| 20260905235503 | 25 | 259 | 14.5 | 30.6 | 0.00 | 0.00 | 0.00 | 24 | 1022.4 |
| 20260905235003 | 25 | 251 | 9.7 | 22.5 | 0.00 | 0.00 | 0.00 | 24 | 1022.3 |
| 20260905234503 | 25 | 255 | 11.3 | 25.7 | 0.00 | 0.00 | 0.00 | 25 | 1022.4 |
| 20260905234003 | 25 | 262 | 14.5 | 25.7 | 0.00 | 0.00 | 0.00 | 26 | 1022.5 |
| 20260905233503 | 25 | 229 | 16.1 | 30.6 | 0.00 | 0.00 | 0.00 | 25 | 1022.4 |
| 20260905233003 | 25 | 212 | 17.7 | 30.6 | 0.00 | 0.00 | 0.00 | 26 | 1022.5 |
| 20260905232503 | 25 | 223 | 17.7 | 27.4 | 0.00 | 0.00 | 0.00 | 25 | 1022.5 |